{"data":{"norad_id":61863,"intl_designator":"2024-202U","name":"STARLINK-32324","alt_names":[],"object_type":"PAYLOAD","status":"ACTIVE","operator":null,"country":"US","launch_date":"2024-11-07","launch_site_code":"AFETR","launch_vehicle":null,"mission":null,"orbit_class":"UNKNOWN","rcs_meters":null,"size_class":null,"mass_kg":null,"dimensions":null,"purposes":["comms"],"wikipedia_slug":null,"has_3d_model":false,"image_url":null,"decayed_at":null,"tle_current":{"epoch":"2026-05-25T02:48:04.010112Z","epoch_age_seconds":61638,"freshness":"FRESH","line1":"1 61863U 24202U   26145.11671308  .00000731  00000+0  36093-4 0  9994","line2":"2 61863  43.0028 166.5896 0001424 272.9354  87.1334 15.27575601 87018","mean_motion":15.27575601,"eccentricity":0.0001424,"inclination_deg":43.0028,"raan_deg":166.5896,"arg_perigee_deg":272.9354,"mean_anomaly_deg":87.1334,"bstar":3.6093e-5,"rev_number":8701,"period_min":94.26702017611,"perigee_km":482.08523348399,"apogee_km":484.0393030356,"semimajor_km":6861.1992682598,"source":"CELESTRAK","updated_at":"2026-05-25T13:38:19.453437Z"}}}